Weather History for Palm Springs, CA

Change the Weather History Date:

Wednesday, July 9, 2014

  Actual Average Record
Temperature  
Mean Temperature 95 °F 92 °F  
Max Temperature 104 °F 107 °F 120 °F (1958)
Min Temperature 85 °F 77 °F 60 °F (1936)
Degree Days  
Heating Degree Days 0 0  
Month to date heating degree days 0 0  
Since 1 June heating degree days 0 0  
Since 1 July heating degree days 0 0  
Cooling Degree Days 30 27  
Month to date cooling degree days 281 236  
Year to date cooling degree days 2134 1642  
Since 1 June cooling degree days 1024 883  
Growing Degree Days 44 (Base 50)    
Moisture  
Dew Point 57 °F    
Average Humidity 35    
Maximum Humidity 46    
Minimum Humidity 24    
Precipitation  
Precipitation 0.00 in 0.00 in 0.00 in (2015)
Month to date precipitation T 0.00  
Year to date precipitation 0.75 2.94  
Since 1 July precipitation T 0.00  
Snow  
Snow 0.00 in - - ()
Month to date snowfall 0.0  
Year to date snowfall 0.0  
Since 1 July snowfall 0.0  
Snow Depth 0.00 in    
Sea Level Pressure  
Sea Level Pressure 29.84 in    
Wind  
Wind Speed 7 mph (North)    
Max Wind Speed 14 mph    
Max Gust Speed 18 mph    
Visibility 10 miles    
Events      
T = Trace of Precipitation, MM = Missing Value Source: NWS Daily Summary

Daily Weather History Graph

Daily Weather History Graph

Search for Another Location

Airport:

Trip Planner

Search our weather history database for the weather conditions in past years. The results will help you decide how hot, cold, wet, or windy it might be!

Date:

Astronomy

Jul. 09, 2014 Rise Set
Actual Time 5:42 AM PDT 7:59 PM PDT
Civil Twilight 5:14 AM PDT 8:28 PM PDT
Nautical Twilight 4:38 AM PDT 9:03 PM PDT
Astronomical Twilight 4:00 AM PDT 9:41 PM PDT
Moon 5:18 PM PDT (7/9) 3:01 AM PDT (7/9)
Length of Visible Light 15h 14m
Length of Day
14h 16m
Waxing Gibbous, 90% of the Moon is Illuminated
Jul 9
Waxing Gibbous
Jul 12
Full
Jul 18
Last Quarter
Jul 26
New
Aug 3
First Quarter

Hourly Weather History & Observations

Time (PDT) Temp. Heat Index Dew Point Humidity Pressure Visibility Wind Dir Wind Speed Gust Speed Precip Events Conditions
12:53 AM 91.9 °F - 51.1 °F 25% 29.86 in 10.0 mi WNW 3.5 mph - N/A   Clear
1:53 AM 90.0 °F - 51.1 °F 26% 29.86 in 10.0 mi NW 6.9 mph - N/A   Clear
2:53 AM 89.1 °F - 51.1 °F 27% 29.86 in 10.0 mi North 8.1 mph - N/A   Clear
3:53 AM 86.0 °F 84.2 °F 54.0 °F 33% 29.86 in 10.0 mi West 3.5 mph - N/A   Clear
4:53 AM 86.0 °F - 48.9 °F 28% 29.87 in 10.0 mi North 8.1 mph - N/A   Clear
5:53 AM 84.9 °F - 51.1 °F 31% 29.89 in 10.0 mi Calm Calm - N/A   Clear
6:53 AM 86.0 °F - 46.9 °F 26% 29.91 in 10.0 mi NNW 8.1 mph - N/A   Clear
7:53 AM 89.1 °F - 48.0 °F 24% 29.91 in 10.0 mi WNW 6.9 mph - N/A   Clear
8:53 AM 91.9 °F 90.3 °F 55.9 °F 30% 29.91 in 10.0 mi ENE 5.8 mph - N/A   Clear
9:53 AM 93.0 °F 95.0 °F 64.9 °F 39% 29.91 in 10.0 mi ESE 8.1 mph - N/A   Scattered Clouds
10:53 AM 93.9 °F 99.1 °F 69.1 °F 44% 29.91 in 10.0 mi East 9.2 mph - N/A   Clear
11:53 AM 97.0 °F 102.8 °F 69.1 °F 40% 29.88 in 10.0 mi Variable 5.8 mph - N/A   Scattered Clouds
12:53 PM 98.1 °F 106.5 °F 71.1 °F 42% 29.86 in 10.0 mi Variable 6.9 mph 17.3 mph N/A   Clear
1:53 PM 100.0 °F 105.6 °F 68.0 °F 35% 29.83 in 10.0 mi Variable 4.6 mph - N/A   Clear
2:53 PM 100.9 °F 106.7 °F 68.0 °F 34% 29.81 in 10.0 mi ESE 10.4 mph - N/A   Clear
3:53 PM 104.0 °F 108.9 °F 66.0 °F 29% 29.77 in 10.0 mi ESE 8.1 mph 18.4 mph N/A   Clear
5:53 PM 104.0 °F 106.6 °F 63.0 °F 26% 29.73 in 10.0 mi ESE 9.2 mph - N/A   Clear
6:53 PM 102.9 °F 104.2 °F 61.0 °F 25% 29.74 in 10.0 mi Variable 3.5 mph - N/A   Clear
7:53 PM 100.9 °F - 51.1 °F 19% 29.75 in 10.0 mi NW 15.0 mph - N/A   Clear
8:53 PM 98.1 °F - 48.0 °F 18% 29.77 in 10.0 mi NW 16.1 mph - N/A   Clear
9:53 PM 96.1 °F - 48.0 °F 19% 29.81 in 10.0 mi NNW 15.0 mph - N/A   Clear
10:53 PM 93.0 °F - 48.9 °F 22% 29.82 in 10.0 mi NNW 8.1 mph - N/A   Clear
11:53 PM 91.0 °F - 51.1 °F 25% 29.83 in 10.0 mi NNE 4.6 mph - N/A   Clear